| time (UTC) | temp F | wind direction | speed MPH | gust MPH | rain 1hr in | rain 24hr in | rain mn in | humidity % | barometer mb |
| 20260505101635 | 56 | 262 | 7.0 | 13.0 | 0.00 | 0.00 | 0.00 | 70 | 947.8 |
| 20260505100034 | 56 | 231 | 8.0 | 13.0 | 0.00 | 0.00 | 0.00 | 70 | 947.5 |
| 20260505094533 | 57 | 257 | 9.0 | 15.0 | 0.00 | 0.00 | 0.00 | 70 | 947.2 |
| 20260505093037 | 57 | 269 | 7.0 | 11.0 | 0.00 | 0.00 | 0.00 | 69 | 947.3 |
| 20260505091633 | 57 | 233 | 6.0 | 14.0 | 0.00 | 0.00 | 0.00 | 68 | 947.2 |
| 20260505090033 | 57 | 244 | 8.0 | 11.0 | 0.00 | 0.00 | 0.00 | 68 | 947.1 |
| 20260505084533 | 57 | 254 | 8.0 | 14.0 | 0.00 | 0.00 | 0.00 | 67 | 947.1 |
| 20260505083033 | 57 | 249 | 8.0 | 12.0 | 0.00 | 0.00 | 0.00 | 67 | 946.9 |
| 20260505081631 | 58 | 266 | 6.0 | 13.0 | 0.00 | 0.00 | 0.00 | 66 | 947.0 |
| 20260505080034 | 58 | 249 | 8.0 | 14.0 | 0.00 | 0.00 | 0.00 | 66 | 947.1 |
| 20260505074533 | 58 | 248 | 6.0 | 15.0 | 0.00 | 0.00 | 0.00 | 65 | 947.2 |
| 20260505073034 | 58 | 265 | 7.0 | 14.0 | 0.00 | 0.00 | 0.00 | 65 | 947.2 |
| 20260505071536 | 57 | 267 | 9.0 | 15.0 | 0.00 | 0.00 | 0.00 | 64 | 947.3 |
| 20260505070034 | 57 | 261 | 8.0 | 14.0 | 0.00 | 0.00 | 0.00 | 64 | 947.3 |
| 20260505064527 | 57 | 254 | 7.0 | 13.0 | 0.00 | 0.00 | 0.00 | 65 | 947.4 |
| 20260505063027 | 57 | 255 | 8.0 | 15.0 | 0.00 | 0.00 | 0.00 | 63 | 947.3 |
| 20260505060026 | 57 | 265 | 10.0 | 15.0 | 0.00 | 0.00 | 0.00 | 62 | 947.3 |
| 20260505054526 | 57 | 227 | 9.0 | 18.0 | 0.00 | 0.00 | 0.00 | 62 | 947.4 |
| 20260505053033 | 57 | 246 | 8.0 | 14.0 | 0.00 | 0.00 | 0.00 | 62 | 947.4 |
| 20260505051627 | 57 | 240 | 7.0 | 18.0 | 0.00 | 0.00 | 0.00 | 62 | 947.5 |
| 20260505041626 | 58 | 225 | 10.0 | 16.0 | 0.00 | 0.00 | 0.00 | 59 | 947.5 |
| 20260505040026 | 58 | 235 | 8.0 | 16.0 | 0.00 | 0.00 | 0.00 | 59 | 947.4 |
| 20260505034524 | 59 | 244 | 7.0 | 15.0 | 0.00 | 0.00 | 0.00 | 58 | 947.3 |
| 20260505033025 | 60 | 240 | 9.0 | 19.0 | 0.00 | 0.00 | 0.00 | 57 | 947.2 |
| 20260505031624 | 60 | 265 | 10.0 | 21.0 | 0.00 | 0.00 | 0.00 | 56 | 947.2 |
| 20260505030022 | 60 | 264 | 9.0 | 19.0 | 0.00 | 0.00 | 0.00 | 56 | 947.3 |
| 20260505024521 | 61 | 254 | 11.0 | 24.0 | 0.00 | 0.00 | 0.00 | 55 | 947.3 |
| 20260505023021 | 61 | 257 | 12.0 | 20.0 | 0.00 | 0.00 | 0.00 | 54 | 947.4 |
| 20260505021621 | 61 | 229 | 9.0 | 19.0 | 0.00 | 0.00 | 0.00 | 53 | 947.5 |
| 20260505020020 | 61 | 221 | 9.0 | 17.0 | 0.00 | 0.00 | 0.00 | 52 | 947.5 |
| 20260505014520 | 62 | 247 | 10.0 | 16.0 | 0.00 | 0.00 | 0.00 | 51 | 947.4 |
| 20260505013019 | 62 | 254 | 10.0 | 20.0 | 0.00 | 0.00 | 0.00 | 51 | 947.3 |
| 20260505011620 | 62 | 262 | 11.0 | 18.0 | 0.00 | 0.00 | 0.00 | 50 | 947.2 |
| 20260505010019 | 62 | 265 | 9.0 | 20.0 | 0.00 | 0.00 | 0.00 | 49 | 947.1 |
| 20260505004520 | 63 | 273 | 10.0 | 18.0 | 0.00 | 0.00 | 0.00 | 49 | 947.0 |
| 20260505003021 | 63 | 252 | 9.0 | 19.0 | 0.00 | 0.00 | 0.00 | 49 | 946.8 |
| 20260505001618 | 63 | 257 | 11.0 | 18.0 | 0.00 | 0.00 | 0.00 | 47 | 947.0 |
| 20260505000017 | 64 | 263 | 9.0 | 20.0 | 0.00 | 0.00 | 0.00 | 47 | 946.8 |
| 20260504234521 | 64 | 250 | 7.0 | 18.0 | 0.00 | 0.00 | 0.00 | 47 | 946.7 |
| 20260504233014 | 64 | 251 | 9.0 | 16.0 | 0.00 | 0.00 | 0.00 | 47 | 946.5 |
| 20260504231613 | 65 | 254 | 8.0 | 14.0 | 0.00 | 0.00 | 0.00 | 45 | 946.6 |
| 20260504230015 | 65 | 263 | 5.0 | 16.0 | 0.00 | 0.00 | 0.00 | 46 | 946.6 |
| 20260504224514 | 66 | 244 | 11.0 | 18.0 | 0.00 | 0.00 | 0.00 | 44 | 946.4 |
| 20260504223014 | 66 | 254 | 8.0 | 12.0 | 0.00 | 0.00 | 0.00 | 44 | 946.4 |
| 20260504221612 | 67 | 286 | 7.0 | 14.0 | 0.00 | 0.00 | 0.00 | 44 | 946.4 |
| 20260504220012 | 67 | 250 | 8.0 | 16.0 | 0.00 | 0.00 | 0.00 | 44 | 946.3 |
| 20260504214510 | 67 | 260 | 6.0 | 12.0 | 0.00 | 0.00 | 0.00 | 47 | 946.5 |
| 20260504213013 | 67 | 268 | 8.0 | 18.0 | 0.00 | 0.00 | 0.00 | 42 | 946.5 |
| 20260504211509 | 67 | 264 | 9.0 | 20.0 | 0.00 | 0.00 | 0.00 | 45 | 946.5 |
| 20260504210008 | 67 | 292 | 7.0 | 15.0 | 0.00 | 0.00 | 0.00 | 43 | 946.7 |
| 20260504204506 | 68 | 273 | 6.0 | 12.0 | 0.00 | 0.00 | 0.00 | 44 | 946.8 |
| 20260504203005 | 68 | 299 | 5.0 | 18.0 | 0.00 | 0.00 | 0.00 | 46 | 946.9 |
| 20260504201603 | 67 | 279 | 5.0 | 17.0 | 0.00 | 0.00 | 0.00 | 45 | 947.1 |
| 20260504200003 | 67 | 261 | 6.0 | 13.0 | 0.00 | 0.00 | 0.00 | 46 | 947.3 |
| 20260504194501 | 66 | 300 | 4.0 | 20.0 | 0.00 | 0.00 | 0.00 | 49 | 947.4 |
| 20260504193002 | 65 | 256 | 10.0 | 20.0 | 0.00 | 0.00 | 0.00 | 48 | 947.6 |
| 20260504191559 | 66 | 269 | 6.0 | 16.0 | 0.00 | 0.00 | 0.00 | 44 | 947.5 |
| 20260504190128 | 65 | 360 | 7.0 | 14.0 | 0.00 | 0.00 | 0.00 | 47 | 947.7 |
| 20260504184555 | 64 | 265 | 7.0 | 18.0 | 0.00 | 0.00 | 0.00 | 49 | 947.7 |
| 20260504183054 | 64 | 297 | 5.0 | 14.0 | 0.00 | 0.00 | 0.00 | 46 | 947.9 |
| 20260504181555 | 66 | 325 | 4.0 | 14.0 | 0.00 | 0.00 | 0.00 | 46 | 947.9 |
| 20260504180007 | 65 | 307 | 6.0 | 16.0 | 0.00 | 0.00 | 0.00 | 48 | 948.2 |
| 20260504174505 | 63 | 275 | 3.0 | 18.0 | 0.00 | 0.00 | 0.00 | 50 | 948.2 |
| 20260504173004 | 64 | 15 | 5.0 | 16.0 | 0.00 | 0.00 | 0.00 | 47 | 948.2 |
| 20260504171605 | 64 | 332 | 8.0 | 18.0 | 0.00 | 0.00 | 0.00 | 50 | 948.3 |